PST,Max TemperatureF,Mean TemperatureF,Min TemperatureF,Max Dew PointF,MeanDew PointF,Min DewpointF,Max Humidity, Mean Humidity, Min Humidity, Max Sea Level PressureIn, Mean Sea Level PressureIn, Min Sea Level PressureIn, Max VisibilityMiles, Mean VisibilityMiles, Min VisibilityMiles, Max Wind SpeedMPH, Mean Wind SpeedMPH, Max Gust SpeedMPH,PrecipitationIn, CloudCover, Events, WindDirDegrees
2013-2-1,66,51,35,45,39,33,92,69,45,30.25,30.21,30.14,10,6,0,6,1,9,0.00,0,Fog,330
2013-2-2,64,52,40,45,41,37,96,72,48,30.30,30.24,30.21,10,7,0,7,1,9,0.00,0,Fog,296
2013-2-3,62,50,38,47,41,36,100,78,55,30.25,30.20,30.12,10,4,0,8,1,10,0.00,3,Fog,152
2013-2-4,62,49,36,47,40,35,92,76,60,30.19,30.13,30.06,10,4,0,8,1,12,0.00,1,Fog,167
2013-2-5,57,49,41,45,42,39,89,75,61,30.13,30.09,30.05,10,9,0,14,5,18,0.00,1,Fog,199
2013-2-6,59,48,36,43,39,36,100,74,47,30.20,30.15,30.12,10,5,0,8,3,14,0.00,1,Fog,276
2013-2-7,57,48,38,44,38,32,86,67,47,30.16,30.09,30.00,10,9,3,14,7,18,0.02,3,Rain,183
2013-2-8,57,47,36,38,33,27,92,63,33,30.01,29.97,29.92,10,10,9,20,6,24,T,2,,332
2013-2-9,58,46,34,30,28,26,70,52,33,30.10,30.04,29.97,10,10,10,13,6,16,0.00,0,,348
2013-2-10,61,46,30,36,33,28,89,64,39,30.15,30.08,30.01,10,10,6,15,3,18,0.00,0,,312
2013-2-11,63,47,30,34,30,26,85,56,27,30.24,30.17,30.09,10,10,8,8,2,25,0.00,0,,139
2013-2-12,61,47,33,36,34,30,89,65,40,30.39,30.32,30.26,10,10,8,6,0,9,0.00,0,,265
2013-2-13,63,49,34,40,36,30,89,68,46,30.35,30.28,30.21,10,9,6,6,1,16,0.00,0,,172
2013-2-14,71,63,54,42,38,32,46,33,20,30.27,30.22,30.17,10,6,1,31,1,39,0.00,0,,40
2013-2-15,71,54,37,44,40,36,92,64,35,30.30,30.26,30.23,10,6,0,5,1,9,0.00,0,Fog,315
2013-2-16,69,55,41,44,40,35,89,63,37,30.26,30.15,30.03,10,9,6,9,2,12,0.00,0,,5
2013-2-17,66,52,37,41,38,33,92,66,40,30.05,30.00,29.95,10,10,6,10,4,15,0.00,0,,322
2013-2-18,57,47,36,43,38,35,92,74,55,30.02,29.97,29.92,10,10,9,20,7,25,0.00,1,,199
2013-2-19,47,43,39,42,37,33,83,74,65,29.93,29.83,29.74,10,9,2,20,9,30,0.34,6,Rain,183
2013-2-20,60,45,30,36,31,28,92,62,31,30.03,29.92,29.85,10,7,2,21,5,26,0.00,0,,292
2013-2-21,61,47,33,40,32,26,92,61,29,30.17,30.11,30.04,10,10,6,18,5,22,0.00,1,,334
2013-2-22,63,48,32,41,35,30,89,60,30,30.26,30.20,30.16,10,10,10,8,2,12,0.00,1,,170
2013-2-23,60,52,43,41,30,22,83,53,23,30.25,30.18,30.14,10,10,10,23,11,30,0.00,0,,319
2013-2-24,63,51,39,30,26,23,59,40,21,30.25,30.21,30.16,10,10,10,21,10,26,0.00,0,,328
2013-2-25,63,49,34,42,34,29,82,63,43,30.27,30.22,30.17,10,10,10,13,4,16,0.00,0,,237
2013-2-26,67,52,37,31,27,23,70,45,20,30.22,30.17,30.12,10,10,10,25,9,33,0.00,0,,334
2013-2-27,67,51,34,36,32,28,82,55,28,30.35,30.29,30.22,10,10,10,7,1,8,0.00,0,,155
2013-2-28,70,55,40,44,39,35,79,55,31,30.44,30.39,30.35,10,10,10,12,1,17,0.00,1,,291